Time,TemperatureF,DewpointF,PressureIn,WindDirection,WindDirectionDegrees,WindSpeedMPH,WindSpeedGustMPH,Humidity,HourlyPrecipIn,Conditions,Clouds,dailyrainin,SoftwareType,DateUTC
2013-03-03 00:00:00,26.5,22.0,29.70,South,172,1.0,6.0,83,0.00,,,0.00,Wunderground v.1.15,2013-03-03 05:00:00,
2013-03-03 00:01:00,26.5,22.0,29.70,SSE,161,1.0,6.0,83,0.00,,,0.00,Wunderground v.1.15,2013-03-03 05:01:00,
2013-03-03 00:04:00,26.5,22.0,29.70,SSE,159,1.0,6.0,83,0.00,,,0.00,Wunderground v.1.15,2013-03-03 05:04:00,
2013-03-03 00:10:00,26.5,22.3,29.70,WSW,255,1.0,1.0,84,0.00,,,0.00,Wunderground v.1.15,2013-03-03 05:10:00,
2013-03-03 00:16:00,26.5,22.0,29.70,NNE,19,1.0,2.0,83,0.00,,,0.00,Wunderground v.1.15,2013-03-03 05:16:00,
2013-03-03 00:19:00,26.5,22.0,29.70,ENE,72,1.0,1.0,83,0.00,,,0.00,Wunderground v.1.15,2013-03-03 05:19:00,
2013-03-03 00:25:00,26.4,21.9,29.71,ENE,77,1.0,1.0,83,0.00,,,0.00,Wunderground v.1.15,2013-03-03 05:25:00,
2013-03-03 00:31:00,26.5,22.0,29.71,SSW,197,0.0,1.0,83,0.00,,,0.00,Wunderground v.1.15,2013-03-03 05:31:00,
2013-03-03 00:37:00,26.4,21.9,29.70,NNE,22,1.0,2.0,83,0.00,,,0.00,Wunderground v.1.15,2013-03-03 05:37:00,
2013-03-03 00:43:00,26.4,21.7,29.71,SE,146,1.0,2.0,82,0.00,,,0.00,Wunderground v.1.15,2013-03-03 05:43:00,
2013-03-03 00:48:00,26.3,21.6,29.71,NE,42,0.0,2.0,82,0.00,,,0.00,Wunderground v.1.15,2013-03-03 05:48:00,
2013-03-03 00:54:00,26.3,21.6,29.71,SE,144,1.0,4.0,82,0.00,,,0.00,Wunderground v.1.15,2013-03-03 05:54:00,
2013-03-03 01:00:00,26.2,21.5,29.71,East,99,1.0,1.0,82,0.00,,,0.00,Wunderground v.1.15,2013-03-03 06:00:00,
2013-03-03 01:05:00,26.2,21.7,29.71,East,79,1.0,5.0,83,0.00,,,0.00,Wunderground v.1.15,2013-03-03 06:05:00,
2013-03-03 01:11:00,26.1,21.4,29.71,East,85,1.0,2.0,82,0.00,,,0.00,Wunderground v.1.15,2013-03-03 06:11:00,
2013-03-03 01:17:00,26.0,21.5,29.71,SW,219,1.0,2.0,83,0.00,,,0.00,Wunderground v.1.15,2013-03-03 06:17:00,
2013-03-03 01:22:00,25.9,21.2,29.71,ESE,112,1.0,4.0,82,0.00,,,0.00,Wunderground v.1.15,2013-03-03 06:22:00,
2013-03-03 01:27:00,25.9,21.2,29.71,West,272,1.0,4.0,82,0.00,,,0.00,Wunderground v.1.15,2013-03-03 06:27:00,
2013-03-03 01:33:00,25.9,21.4,29.71,ENE,65,1.0,1.0,83,0.00,,,0.00,Wunderground v.1.15,2013-03-03 06:33:00,
2013-03-03 01:39:00,25.8,21.3,29.70,East,87,1.0,5.0,83,0.00,,,0.00,Wunderground v.1.15,2013-03-03 06:39:00,
2013-03-03 01:45:00,25.8,21.1,29.70,NE,52,1.0,2.0,82,0.00,,,0.00,Wunderground v.1.15,2013-03-03 06:45:00,
2013-03-03 01:51:00,25.7,21.3,29.70,SW,222,1.0,2.0,83,0.00,,,0.00,Wunderground v.1.15,2013-03-03 06:51:00,
2013-03-03 01:57:00,25.6,20.9,29.70,SW,222,1.0,3.0,82,0.00,,,0.00,Wunderground v.1.15,2013-03-03 06:57:00,
2013-03-03 02:03:00,25.6,20.9,29.70,ESE,111,1.0,4.0,82,0.00,,,0.00,Wunderground v.1.15,2013-03-03 07:03:00,
2013-03-03 02:09:00,25.5,20.8,29.70,SSW,210,1.0,5.0,82,0.00,,,0.00,Wunderground v.1.15,2013-03-03 07:09:00,
2013-03-03 02:14:00,25.4,20.7,29.70,NW,312,1.0,3.0,82,0.00,,,0.00,Wunderground v.1.15,2013-03-03 07:14:00,
2013-03-03 02:20:00,25.4,20.7,29.69,ESE,111,1.0,3.0,82,0.00,,,0.00,Wunderground v.1.15,2013-03-03 07:20:00,
2013-03-03 02:26:00,25.4,20.7,29.69,NE,54,1.0,4.0,82,0.00,,,0.00,Wunderground v.1.15,2013-03-03 07:26:00,
2013-03-03 02:32:00,25.3,20.3,29.69,SSW,203,1.0,1.0,81,0.00,,,0.00,Wunderground v.1.15,2013-03-03 07:32:00,
2013-03-03 02:38:00,25.3,20.3,29.69,ESE,102,1.0,6.0,81,0.00,,,0.00,Wunderground v.1.15,2013-03-03 07:38:00,
2013-03-03 02:44:00,25.2,20.2,29.69,NE,44,1.0,2.0,81,0.00,,,0.00,Wunderground v.1.15,2013-03-03 07:44:00,
2013-03-03 02:50:00,25.2,20.2,29.69,SE,124,1.0,1.0,81,0.00,,,0.00,Wunderground v.1.15,2013-03-03 07:50:00,
2013-03-03 02:55:00,25.1,20.1,29.68,NE,39,1.0,3.0,81,0.00,,,0.00,Wunderground v.1.15,2013-03-03 07:55:00,
2013-03-03 03:01:00,25.1,20.1,29.69,NE,49,1.0,2.0,81,0.00,,,0.00,Wunderground v.1.15,2013-03-03 08:01:00,
2013-03-03 03:07:00,25.1,20.1,29.69,ENE,74,1.0,2.0,81,0.00,,,0.00,Wunderground v.1.15,2013-03-03 08:07:00,
2013-03-03 03:13:00,25.0,20.3,29.68,SW,221,1.0,4.0,82,0.00,,,0.00,Wunderground v.1.15,2013-03-03 08:13:00,
2013-03-03 03:18:00,25.0,20.3,29.68,NE,45,1.0,4.0,82,0.00,,,0.00,Wunderground v.1.15,2013-03-03 08:18:00,
2013-03-03 03:24:00,24.9,19.9,29.68,SW,219,1.0,3.0,81,0.00,,,0.00,Wunderground v.1.15,2013-03-03 08:24:00,
2013-03-03 03:30:00,24.8,20.1,29.68,NE,54,1.0,1.0,82,0.00,,,0.00,Wunderground v.1.15,2013-03-03 08:30:00,
2013-03-03 03:36:00,24.8,20.1,29.68,South,182,1.0,2.0,82,0.00,,,0.00,Wunderground v.1.15,2013-03-03 08:36:00,
2013-03-03 03:42:00,24.8,19.8,29.68,North,7,1.0,3.0,81,0.00,,,0.00,Wunderground v.1.15,2013-03-03 08:42:00,
2013-03-03 03:48:00,24.7,20.0,29.68,North,9,1.0,6.0,82,0.00,,,0.00,Wunderground v.1.15,2013-03-03 08:48:00,
2013-03-03 03:54:00,24.7,20.0,29.68,North,9,1.0,2.0,82,0.00,,,0.00,Wunderground v.1.15,2013-03-03 08:54:00,
2013-03-03 03:59:00,24.7,20.0,29.68,SSW,209,1.0,2.0,82,0.00,,,0.00,Wunderground v.1.15,2013-03-03 08:59:00,
2013-03-03 04:05:00,24.6,19.6,29.68,ESE,109,1.0,2.0,81,0.00,,,0.00,Wunderground v.1.15,2013-03-03 09:05:00,
2013-03-03 04:11:00,24.6,19.6,29.69,SSW,212,1.0,1.0,81,0.00,,,0.00,Wunderground v.1.15,2013-03-03 09:11:00,
2013-03-03 04:16:00,24.6,19.9,29.69,ENE,73,0.0,2.0,82,0.00,,,0.00,Wunderground v.1.15,2013-03-03 09:16:00,
2013-03-03 04:22:00,24.6,19.6,29.69,NE,34,0.0,1.0,81,0.00,,,0.00,Wunderground v.1.15,2013-03-03 09:22:00,
2013-03-03 04:28:00,24.6,19.6,29.69,ENE,77,0.0,1.0,81,0.00,,,0.00,Wunderground v.1.15,2013-03-03 09:28:00,
2013-03-03 04:34:00,24.6,19.6,29.69,NNE,26,0.0,2.0,81,0.00,,,0.00,Wunderground v.1.15,2013-03-03 09:34:00,
2013-03-03 04:40:00,24.5,19.5,29.69,ENE,78,1.0,1.0,81,0.00,,,0.00,Wunderground v.1.15,2013-03-03 09:40:00,
2013-03-03 04:46:00,24.5,19.5,29.69,ESE,108,1.0,1.0,81,0.00,,,0.00,Wunderground v.1.15,2013-03-03 09:46:00,
2013-03-03 04:52:00,24.5,19.5,29.69,SE,137,1.0,2.0,81,0.00,,,0.00,Wunderground v.1.15,2013-03-03 09:52:00,
2013-03-03 04:57:00,24.5,19.2,29.69,SE,142,2.0,2.0,80,0.00,,,0.00,Wunderground v.1.15,2013-03-03 09:57:00,
2013-03-03 05:03:00,24.4,19.4,29.69,ENE,67,1.0,2.0,81,0.00,,,0.00,Wunderground v.1.15,2013-03-03 10:03:00,
2013-03-03 05:08:00,24.4,19.1,29.69,SW,223,1.0,2.0,80,0.00,,,0.00,Wunderground v.1.15,2013-03-03 10:08:00,
2013-03-03 05:14:00,24.4,19.1,29.69,SW,223,2.0,6.0,80,0.00,,,0.00,Wunderground v.1.15,2013-03-03 10:14:00,
2013-03-03 05:20:00,24.4,19.4,29.69,NNE,28,1.0,2.0,81,0.00,,,0.00,Wunderground v.1.15,2013-03-03 10:20:00,
2013-03-03 05:26:00,24.4,19.1,29.69,NE,56,1.0,2.0,80,0.00,,,0.00,Wunderground v.1.15,2013-03-03 10:26:00,
2013-03-03 05:32:00,24.3,19.0,29.69,East,91,1.0,1.0,80,0.00,,,0.00,Wunderground v.1.15,2013-03-03 10:32:00,
2013-03-03 05:38:00,24.3,19.0,29.70,SSE,149,0.0,1.0,80,0.00,,,0.00,Wunderground v.1.15,2013-03-03 10:38:00,
2013-03-03 05:44:00,24.3,19.0,29.70,NE,54,0.0,3.0,80,0.00,,,0.00,Wunderground v.1.15,2013-03-03 10:44:00,
2013-03-03 05:50:00,24.2,18.6,29.70,ENE,61,1.0,1.0,79,0.00,,,0.00,Wunderground v.1.15,2013-03-03 10:50:00,
2013-03-03 05:56:00,24.2,18.6,29.70,SW,219,1.0,3.0,79,0.00,,,0.00,Wunderground v.1.15,2013-03-03 10:56:00,
2013-03-03 06:02:00,24.2,18.6,29.70,SSW,210,1.0,2.0,79,0.00,,,0.00,Wunderground v.1.15,2013-03-03 11:02:00,
2013-03-03 06:08:00,24.1,18.2,29.70,SSW,196,1.0,3.0,78,0.00,,,0.00,Wunderground v.1.15,2013-03-03 11:08:00,
2013-03-03 06:14:00,24.1,18.2,29.70,SW,233,1.0,3.0,78,0.00,,,0.00,Wunderground v.1.15,2013-03-03 11:14:00,
2013-03-03 06:19:00,24.1,18.5,29.70,NNE,16,1.0,4.0,79,0.00,,,0.00,Wunderground v.1.15,2013-03-03 11:19:00,
2013-03-03 06:25:00,24.1,18.5,29.70,South,186,0.0,1.0,79,0.00,,,0.00,Wunderground v.1.15,2013-03-03 11:25:00,
2013-03-03 06:31:00,24.1,18.5,29.70,NNE,26,0.0,1.0,79,0.00,,,0.00,Wunderground v.1.15,2013-03-03 11:31:00,
2013-03-03 06:37:00,24.1,18.5,29.70,South,188,1.0,1.0,79,0.00,,,0.00,Wunderground v.1.15,2013-03-03 11:37:00,
2013-03-03 06:43:00,24.1,18.2,29.70,NE,35,1.0,2.0,78,0.00,,,0.00,Wunderground v.1.15,2013-03-03 11:43:00,
2013-03-03 06:48:00,24.1,18.2,29.70,East,87,1.0,3.0,78,0.00,,,0.00,Wunderground v.1.15,2013-03-03 11:48:00,
2013-03-03 06:54:00,24.2,18.3,29.70,SW,215,1.0,4.0,78,0.00,,,0.00,Wunderground v.1.15,2013-03-03 11:54:00,
2013-03-03 07:00:00,24.3,18.1,29.70,ENE,58,1.0,1.0,77,0.00,,,0.00,Wunderground v.1.15,2013-03-03 12:00:00,
2013-03-03 07:05:00,24.3,18.1,29.70,NE,39,1.0,1.0,77,0.00,,,0.00,Wunderground v.1.15,2013-03-03 12:05:00,
2013-03-03 07:11:00,24.4,18.2,29.70,North,359,1.0,1.0,77,0.00,,,0.00,Wunderground v.1.15,2013-03-03 12:11:00,
2013-03-03 07:17:00,24.6,18.4,29.70,WSW,251,0.0,1.0,77,0.00,,,0.00,Wunderground v.1.15,2013-03-03 12:17:00,
2013-03-03 07:23:00,24.7,18.2,29.70,East,99,1.0,2.0,76,0.00,,,0.00,Wunderground v.1.15,2013-03-03 12:23:00,
2013-03-03 07:29:00,24.9,18.4,29.70,WSW,237,0.0,2.0,76,0.00,,,0.00,Wunderground v.1.15,2013-03-03 12:29:00,
2013-03-03 07:35:00,25.1,18.3,29.70,SW,231,0.0,1.0,75,0.00,,,0.00,Wunderground v.1.15,2013-03-03 12:35:00,
2013-03-03 07:41:00,25.1,18.0,29.70,West,279,1.0,1.0,74,0.00,,,0.00,Wunderground v.1.15,2013-03-03 12:41:00,
2013-03-03 07:47:00,25.3,17.9,29.70,SW,219,1.0,2.0,73,0.00,,,0.00,Wunderground v.1.15,2013-03-03 12:47:00,
2013-03-03 07:53:00,25.3,17.5,29.70,South,174,1.0,3.0,72,0.00,,,0.00,Wunderground v.1.15,2013-03-03 12:53:00,
2013-03-03 07:59:00,25.3,17.5,29.70,SE,133,2.0,5.0,72,0.00,,,0.00,Wunderground v.1.15,2013-03-03 12:59:00,
2013-03-03 08:05:00,25.3,17.5,29.70,SSW,210,1.0,2.0,72,0.00,,,0.00,Wunderground v.1.15,2013-03-03 13:05:00,
2013-03-03 08:11:00,25.3,17.2,29.70,East,84,2.0,2.0,71,0.00,,,0.00,Wunderground v.1.15,2013-03-03 13:11:00,
2013-03-03 08:16:00,25.3,16.9,29.70,WSW,242,2.0,5.0,70,0.00,,,0.00,Wunderground v.1.15,2013-03-03 13:16:00,
2013-03-03 08:22:00,25.2,16.8,29.70,SW,231,2.0,2.0,70,0.00,,,0.00,Wunderground v.1.15,2013-03-03 13:22:00,
2013-03-03 08:28:00,25.2,17.1,29.70,SSE,151,1.0,4.0,71,0.00,,,0.00,Wunderground v.1.15,2013-03-03 13:28:00,
2013-03-03 08:34:00,25.3,16.9,29.70,NE,51,2.0,3.0,70,0.00,,,0.00,Wunderground v.1.15,2013-03-03 13:34:00,
2013-03-03 08:40:00,25.5,17.1,29.70,SSW,194,1.0,3.0,70,0.00,,,0.00,Wunderground v.1.15,2013-03-03 13:40:00,
2013-03-03 08:45:00,25.8,17.4,29.70,SSE,168,1.0,3.0,70,0.00,,,0.00,Wunderground v.1.15,2013-03-03 13:45:00,
2013-03-03 08:51:00,26.1,17.0,29.70,South,189,2.0,4.0,68,0.00,,,0.00,Wunderground v.1.15,2013-03-03 13:51:00,
2013-03-03 08:57:00,26.0,16.9,29.70,ENE,75,2.0,4.0,68,0.00,,,0.00,Wunderground v.1.15,2013-03-03 13:57:00,
2013-03-03 09:03:00,25.9,16.4,29.70,ESE,115,2.0,4.0,67,0.00,,,0.00,Wunderground v.1.15,2013-03-03 14:03:00,
2013-03-03 09:09:00,25.8,16.3,29.70,South,175,3.0,4.0,67,0.00,,,0.00,Wunderground v.1.15,2013-03-03 14:09:00,
2013-03-03 09:15:00,26.1,16.6,29.70,SSW,213,2.0,5.0,67,0.00,,,0.00,Wunderground v.1.15,2013-03-03 14:15:00,
2013-03-03 09:21:00,26.1,16.6,29.70,SSE,149,2.0,2.0,67,0.00,,,0.00,Wunderground v.1.15,2013-03-03 14:21:00,
2013-03-03 09:27:00,26.4,16.6,29.69,NE,52,2.0,3.0,66,0.00,,,0.00,Wunderground v.1.15,2013-03-03 14:27:00,
2013-03-03 09:32:00,26.6,16.4,29.69,ESE,115,2.0,3.0,65,0.00,,,0.00,Wunderground v.1.15,2013-03-03 14:32:00,
2013-03-03 09:38:00,27.4,17.2,29.69,WSW,246,2.0,3.0,65,0.00,,,0.00,Wunderground v.1.15,2013-03-03 14:38:00,
2013-03-03 09:44:00,28.0,17.4,29.69,NE,35,2.0,8.0,64,0.00,,,0.00,Wunderground v.1.15,2013-03-03 14:44:00,
2013-03-03 09:49:00,28.7,17.3,29.69,ESE,107,3.0,8.0,62,0.00,,,0.00,Wunderground v.1.15,2013-03-03 14:49:00,
2013-03-03 09:55:00,28.8,17.4,29.69,NE,54,2.0,3.0,62,0.00,,,0.00,Wunderground v.1.15,2013-03-03 14:55:00,
2013-03-03 10:01:00,28.8,17.8,29.69,SSW,207,2.0,4.0,63,0.00,,,0.00,Wunderground v.1.15,2013-03-03 15:01:00,
2013-03-03 10:07:00,28.8,17.8,29.68,SSW,196,2.0,6.0,63,0.00,,,0.00,Wunderground v.1.15,2013-03-03 15:07:00,
2013-03-03 10:13:00,29.2,17.8,29.68,ENE,68,2.0,4.0,62,0.00,,,0.00,Wunderground v.1.15,2013-03-03 15:13:00,
2013-03-03 10:19:00,29.6,17.8,29.68,SW,235,3.0,4.0,61,0.00,,,0.00,Wunderground v.1.15,2013-03-03 15:19:00,
2013-03-03 10:25:00,29.6,17.8,29.68,NNE,30,2.0,5.0,61,0.00,,,0.00,Wunderground v.1.15,2013-03-03 15:25:00,
2013-03-03 10:31:00,29.2,17.4,29.68,ESE,115,2.0,2.0,61,0.00,,,0.00,Wunderground v.1.15,2013-03-03 15:31:00,
2013-03-03 10:37:00,28.9,17.1,29.68,WSW,243,2.0,2.0,61,0.00,,,0.00,Wunderground v.1.15,2013-03-03 15:37:00,
2013-03-03 10:42:00,28.7,17.3,29.68,NNE,26,2.0,2.0,62,0.00,,,0.00,Wunderground v.1.15,2013-03-03 15:42:00,
2013-03-03 10:48:00,28.4,17.4,29.68,ENE,66,2.0,9.0,63,0.00,,,0.00,Wunderground v.1.15,2013-03-03 15:48:00,
2013-03-03 10:54:00,28.9,18.2,29.68,ESE,103,2.0,3.0,64,0.00,,,0.00,Wunderground v.1.15,2013-03-03 15:54:00,
2013-03-03 11:00:00,29.6,18.2,29.68,East,91,2.0,2.0,62,0.00,,,0.00,Wunderground v.1.15,2013-03-03 16:00:00,
2013-03-03 11:05:00,29.8,18.0,29.68,West,266,2.0,2.0,61,0.00,,,0.00,Wunderground v.1.15,2013-03-03 16:05:00,
2013-03-03 11:11:00,29.9,18.5,29.68,West,276,2.0,2.0,62,0.00,,,0.00,Wunderground v.1.15,2013-03-03 16:11:00,
2013-03-03 11:17:00,30.2,18.7,29.68,NNE,18,2.0,2.0,62,0.00,,,0.00,Wunderground v.1.15,2013-03-03 16:17:00,
2013-03-03 11:23:00,30.8,19.3,29.68,NNE,25,1.0,2.0,62,0.00,,,0.00,Wunderground v.1.15,2013-03-03 16:23:00,
2013-03-03 11:28:00,30.9,18.6,29.68,NE,42,1.0,2.0,60,0.00,,,0.00,Wunderground v.1.15,2013-03-03 16:28:00,
2013-03-03 11:34:00,30.6,18.7,29.68,SSE,153,2.0,4.0,61,0.00,,,0.00,Wunderground v.1.15,2013-03-03 16:34:00,
2013-03-03 11:39:00,30.4,18.9,29.68,SW,220,2.0,4.0,62,0.00,,,0.00,Wunderground v.1.15,2013-03-03 16:39:00,
2013-03-03 11:45:00,31.3,19.4,29.68,West,262,2.0,3.0,61,0.00,,,0.00,Wunderground v.1.15,2013-03-03 16:45:00,
2013-03-03 11:51:00,31.4,19.5,29.68,NE,44,2.0,6.0,61,0.00,,,0.00,Wunderground v.1.15,2013-03-03 16:51:00,
2013-03-03 11:57:00,30.8,18.9,29.68,SSE,165,2.0,6.0,61,0.00,,,0.00,Wunderground v.1.15,2013-03-03 16:57:00,
2013-03-03 12:03:00,30.6,19.1,29.67,ENE,66,2.0,2.0,62,0.00,,,0.00,Wunderground v.1.15,2013-03-03 17:03:00,
2013-03-03 12:09:00,31.2,19.7,29.67,ESE,111,2.0,4.0,62,0.00,,,0.00,Wunderground v.1.15,2013-03-03 17:09:00,
2013-03-03 12:15:00,31.2,20.1,29.67,SSW,208,1.0,4.0,63,0.00,,,0.00,Wunderground v.1.15,2013-03-03 17:15:00,
2013-03-03 12:20:00,30.8,19.7,29.67,SSW,208,2.0,6.0,63,0.00,,,0.00,Wunderground v.1.15,2013-03-03 17:20:00,
2013-03-03 12:26:00,30.7,20.0,29.67,South,175,2.0,6.0,64,0.00,,,0.00,Wunderground v.1.15,2013-03-03 17:26:00,
2013-03-03 12:32:00,30.6,19.9,29.67,SSW,201,2.0,5.0,64,0.00,,,0.00,Wunderground v.1.15,2013-03-03 17:32:00,
2013-03-03 12:38:00,31.0,20.2,29.67,NE,47,2.0,5.0,64,0.00,,,0.00,Wunderground v.1.15,2013-03-03 17:38:00,
2013-03-03 12:44:00,31.0,19.9,29.67,SW,215,1.0,4.0,63,0.00,,,0.00,Wunderground v.1.15,2013-03-03 17:44:00,
2013-03-03 12:50:00,30.8,20.0,29.66,ENE,66,2.0,2.0,64,0.00,,,0.00,Wunderground v.1.15,2013-03-03 17:50:00,
2013-03-03 12:56:00,30.9,20.5,29.66,NE,51,1.0,2.0,65,0.00,,,0.00,Wunderground v.1.15,2013-03-03 17:56:00,
2013-03-03 13:02:00,30.8,20.8,29.66,NE,49,2.0,4.0,66,0.00,,,0.00,Wunderground v.1.15,2013-03-03 18:02:00,
2013-03-03 13:08:00,30.6,20.9,29.66,North,10,2.0,5.0,67,0.00,,,0.00,Wunderground v.1.15,2013-03-03 18:08:00,
2013-03-03 13:14:00,30.5,20.8,29.66,NNE,19,2.0,3.0,67,0.00,,,0.00,Wunderground v.1.15,2013-03-03 18:14:00,
2013-03-03 13:20:00,30.5,20.8,29.66,South,179,2.0,2.0,67,0.00,,,0.00,Wunderground v.1.15,2013-03-03 18:20:00,
2013-03-03 13:25:00,30.7,21.4,29.66,NE,39,2.0,2.0,68,0.00,,,0.00,Wunderground v.1.15,2013-03-03 18:25:00,
2013-03-03 13:31:00,30.6,21.3,29.66,ENE,58,1.0,4.0,68,0.00,,,0.00,Wunderground v.1.15,2013-03-03 18:31:00,
2013-03-03 13:37:00,30.7,21.7,29.66,WNW,293,2.0,4.0,69,0.00,,,0.00,Wunderground v.1.15,2013-03-03 18:37:00,
2013-03-03 13:43:00,30.7,21.7,29.66,WNW,291,2.0,4.0,69,0.00,,,0.00,Wunderground v.1.15,2013-03-03 18:43:00,
2013-03-03 13:49:00,30.3,22.4,29.66,East,94,2.0,4.0,72,0.00,,,0.00,Wunderground v.1.15,2013-03-03 18:49:00,
2013-03-03 13:55:00,29.9,22.9,29.66,SW,229,2.0,6.0,75,0.00,,,0.00,Wunderground v.1.15,2013-03-03 18:55:00,
2013-03-03 14:00:00,29.7,23.1,29.66,South,189,2.0,3.0,76,0.00,,,0.00,Wunderground v.1.15,2013-03-03 19:00:00,
2013-03-03 14:05:00,29.4,23.4,29.65,NE,48,2.0,3.0,78,0.00,,,0.00,Wunderground v.1.15,2013-03-03 19:05:00,
2013-03-03 14:11:00,29.3,23.0,29.66,SSE,148,3.0,3.0,77,0.00,,,0.00,Wunderground v.1.15,2013-03-03 19:11:00,
2013-03-03 14:16:00,29.6,23.3,29.65,SSE,161,2.0,4.0,77,0.00,,,0.00,Wunderground v.1.15,2013-03-03 19:16:00,
2013-03-03 14:22:00,29.7,23.4,29.65,ENE,58,2.0,2.0,77,0.00,,,0.00,Wunderground v.1.15,2013-03-03 19:22:00,
2013-03-03 14:27:00,29.4,23.4,29.65,NNW,336,2.0,4.0,78,0.00,,,0.00,Wunderground v.1.15,2013-03-03 19:27:00,
2013-03-03 14:33:00,29.2,23.2,29.65,SW,225,2.0,4.0,78,0.00,,,0.00,Wunderground v.1.15,2013-03-03 19:33:00,
2013-03-03 14:39:00,29.0,23.3,29.65,SE,135,2.0,4.0,79,0.00,,,0.00,Wunderground v.1.15,2013-03-03 19:39:00,
2013-03-03 14:45:00,29.2,23.2,29.65,ENE,59,2.0,3.0,78,0.00,,,0.00,Wunderground v.1.15,2013-03-03 19:45:00,
2013-03-03 14:51:00,29.6,23.3,29.65,NNE,19,1.0,1.0,77,0.00,,,0.00,Wunderground v.1.15,2013-03-03 19:51:00,
2013-03-03 14:57:00,29.6,22.6,29.65,East,82,2.0,6.0,75,0.00,,,0.00,Wunderground v.1.15,2013-03-03 19:57:00,
2013-03-03 15:03:00,29.7,22.7,29.65,ESE,111,2.0,4.0,75,0.00,,,0.00,Wunderground v.1.15,2013-03-03 20:03:00,
2013-03-03 15:09:00,29.7,23.1,29.65,SW,214,2.0,4.0,76,0.00,,,0.00,Wunderground v.1.15,2013-03-03 20:09:00,
2013-03-03 15:14:00,29.9,23.6,29.65,ENE,71,1.0,5.0,77,0.00,,,0.00,Wunderground v.1.15,2013-03-03 20:14:00,
2013-03-03 15:20:00,29.7,22.7,29.66,SSW,192,2.0,2.0,75,0.00,,,0.00,Wunderground v.1.15,2013-03-03 20:20:00,
2013-03-03 15:26:00,29.6,23.3,29.66,South,184,2.0,4.0,77,0.00,,,0.00,Wunderground v.1.15,2013-03-03 20:26:00,
2013-03-03 15:31:00,29.6,23.6,29.65,WSW,248,1.0,2.0,78,0.00,,,0.00,Wunderground v.1.15,2013-03-03 20:31:00,
2013-03-03 15:37:00,29.4,24.0,29.65,South,170,2.0,5.0,80,0.00,,,0.00,Wunderground v.1.15,2013-03-03 20:37:00,
2013-03-03 15:43:00,29.5,23.8,29.65,NE,52,2.0,5.0,79,0.00,,,0.00,Wunderground v.1.15,2013-03-03 20:43:00,
2013-03-03 15:49:00,29.4,23.7,29.65,North,1,2.0,5.0,79,0.00,,,0.00,Wunderground v.1.15,2013-03-03 20:49:00,
2013-03-03 15:55:00,29.5,23.8,29.65,SE,128,2.0,3.0,79,0.00,,,0.00,Wunderground v.1.15,2013-03-03 20:55:00,
2013-03-03 16:01:00,29.7,23.7,29.65,ENE,78,2.0,3.0,78,0.00,,,0.00,Wunderground v.1.15,2013-03-03 21:01:00,
2013-03-03 16:07:00,29.9,23.6,29.65,SSE,152,1.0,5.0,77,0.00,,,0.00,Wunderground v.1.15,2013-03-03 21:07:00,
2013-03-03 16:13:00,30.0,23.4,29.65,SSE,165,1.0,1.0,76,0.00,,,0.00,Wunderground v.1.15,2013-03-03 21:13:00,
2013-03-03 16:18:00,29.9,22.9,29.66,NNE,26,1.0,3.0,75,0.00,,,0.00,Wunderground v.1.15,2013-03-03 21:18:00,
2013-03-03 16:24:00,29.6,23.0,29.66,North,2,2.0,5.0,76,0.00,,,0.00,Wunderground v.1.15,2013-03-03 21:24:00,
2013-03-03 16:30:00,29.3,23.6,29.66,ENE,67,1.0,3.0,79,0.00,,,0.00,Wunderground v.1.15,2013-03-03 21:30:00,
2013-03-03 16:36:00,28.9,23.8,29.66,WSW,250,2.0,5.0,81,0.00,,,0.00,Wunderground v.1.15,2013-03-03 21:36:00,
2013-03-03 16:42:00,28.9,23.8,29.66,WSW,257,1.0,2.0,81,0.00,,,0.00,Wunderground v.1.15,2013-03-03 21:42:00,
2013-03-03 16:48:00,28.8,23.7,29.66,NNE,33,1.0,2.0,81,0.00,,,0.00,Wunderground v.1.15,2013-03-03 21:48:00,
2013-03-03 16:54:00,28.8,23.7,29.66,SW,233,2.0,3.0,81,0.00,,,0.00,Wunderground v.1.15,2013-03-03 21:54:00,
2013-03-03 17:00:00,28.8,24.0,29.66,West,279,2.0,2.0,82,0.00,,,0.00,Wunderground v.1.15,2013-03-03 22:00:00,
2013-03-03 17:05:00,28.7,23.9,29.66,ESE,103,1.0,5.0,82,0.00,,,0.00,Wunderground v.1.15,2013-03-03 22:05:00,
2013-03-03 17:11:00,28.6,24.1,29.66,ENE,58,1.0,1.0,83,0.00,,,0.00,Wunderground v.1.15,2013-03-03 22:11:00,
2013-03-03 17:17:00,28.5,23.7,29.66,East,99,1.0,4.0,82,0.00,,,0.00,Wunderground v.1.15,2013-03-03 22:17:00,
2013-03-03 17:23:00,28.4,23.6,29.66,North,4,1.0,3.0,82,0.00,,,0.00,Wunderground v.1.15,2013-03-03 22:23:00,
2013-03-03 17:29:00,28.4,23.9,29.67,SW,217,1.0,3.0,83,0.00,,,0.00,Wunderground v.1.15,2013-03-03 22:29:00,
2013-03-03 17:35:00,28.3,23.5,29.67,SSW,205,1.0,2.0,82,0.00,,,0.00,Wunderground v.1.15,2013-03-03 22:35:00,
2013-03-03 17:41:00,28.3,23.2,29.67,South,186,1.0,4.0,81,0.00,,,0.00,Wunderground v.1.15,2013-03-03 22:41:00,
2013-03-03 17:46:00,28.3,23.2,29.67,East,79,2.0,4.0,81,0.00,,,0.00,Wunderground v.1.15,2013-03-03 22:46:00,
2013-03-03 17:52:00,28.2,23.1,29.67,NE,56,1.0,4.0,81,0.00,,,0.00,Wunderground v.1.15,2013-03-03 22:52:00,
2013-03-03 17:58:00,28.2,23.4,29.67,SSE,158,2.0,4.0,82,0.00,,,0.00,Wunderground v.1.15,2013-03-03 22:58:00,
2013-03-03 18:03:00,28.1,23.3,29.67,East,83,1.0,3.0,82,0.00,,,0.00,Wunderground v.1.15,2013-03-03 23:03:00,
2013-03-03 18:08:00,28.0,23.2,29.67,East,86,1.0,4.0,82,0.00,,,0.00,Wunderground v.1.15,2013-03-03 23:08:00,
2013-03-03 18:14:00,28.0,23.2,29.67,NE,45,1.0,4.0,82,0.00,,,0.00,Wunderground v.1.15,2013-03-03 23:14:00,
2013-03-03 18:20:00,28.0,23.5,29.67,SW,222,1.0,3.0,83,0.00,,,0.00,Wunderground v.1.15,2013-03-03 23:20:00,
2013-03-03 18:26:00,27.9,23.4,29.68,West,269,2.0,3.0,83,0.00,,,0.00,Wunderground v.1.15,2013-03-03 23:26:00,
2013-03-03 18:32:00,27.8,23.3,29.68,South,189,1.0,2.0,83,0.00,,,0.00,Wunderground v.1.15,2013-03-03 23:32:00,
2013-03-03 18:38:00,27.8,23.3,29.68,SE,141,1.0,3.0,83,0.00,,,0.00,Wunderground v.1.15,2013-03-03 23:38:00,
2013-03-03 18:44:00,27.9,23.1,29.68,West,263,1.0,3.0,82,0.00,,,0.00,Wunderground v.1.15,2013-03-03 23:44:00,
2013-03-03 18:49:00,27.9,22.8,29.68,SSW,196,2.0,4.0,81,0.00,,,0.00,Wunderground v.1.15,2013-03-03 23:49:00,
2013-03-03 18:55:00,28.0,22.6,29.68,North,4,2.0,4.0,80,0.00,,,0.00,Wunderground v.1.15,2013-03-03 23:55:00,
2013-03-03 19:01:00,28.0,22.3,29.68,SW,233,2.0,3.0,79,0.00,,,0.00,Wunderground v.1.15,2013-03-04 00:01:00,
2013-03-03 19:06:00,28.0,22.0,29.68,West,278,2.0,3.0,78,0.00,,,0.00,Wunderground v.1.15,2013-03-04 00:06:00,
2013-03-03 19:12:00,28.0,22.0,29.68,NE,42,1.0,2.0,78,0.00,,,0.00,Wunderground v.1.15,2013-03-04 00:12:00,
2013-03-03 19:18:00,28.0,21.7,29.68,SW,217,1.0,8.0,77,0.00,,,0.00,Wunderground v.1.15,2013-03-04 00:18:00,
2013-03-03 19:24:00,28.0,21.4,29.69,SE,126,1.0,2.0,76,0.00,,,0.00,Wunderground v.1.15,2013-03-04 00:24:00,
2013-03-03 19:30:00,28.0,21.4,29.69,ENE,67,2.0,2.0,76,0.00,,,0.00,Wunderground v.1.15,2013-03-04 00:30:00,
2013-03-03 19:35:00,27.9,21.3,29.69,ENE,58,2.0,2.0,76,0.00,,,0.00,Wunderground v.1.15,2013-03-04 00:35:00,
2013-03-03 19:41:00,27.9,21.0,29.69,East,87,2.0,2.0,75,0.00,,,0.00,Wunderground v.1.15,2013-03-04 00:41:00,
2013-03-03 19:47:00,27.8,20.9,29.69,SW,236,2.0,2.0,75,0.00,,,0.00,Wunderground v.1.15,2013-03-04 00:47:00,
2013-03-03 19:53:00,27.8,20.6,29.69,SSE,168,1.0,2.0,74,0.00,,,0.00,Wunderground v.1.15,2013-03-04 00:53:00,
2013-03-03 19:59:00,27.8,20.9,29.69,South,172,2.0,5.0,75,0.00,,,0.00,Wunderground v.1.15,2013-03-04 00:59:00,
2013-03-03 20:05:00,27.7,20.5,29.69,ESE,123,1.0,2.0,74,0.00,,,0.00,Wunderground v.1.15,2013-03-04 01:05:00,
2013-03-03 20:11:00,27.7,20.5,29.69,SSE,164,1.0,4.0,74,0.00,,,0.00,Wunderground v.1.15,2013-03-04 01:11:00,
2013-03-03 20:17:00,27.7,20.5,29.70,WNW,285,1.0,4.0,74,0.00,,,0.00,Wunderground v.1.15,2013-03-04 01:17:00,
2013-03-03 20:23:00,27.7,20.5,29.70,West,260,1.0,3.0,74,0.00,,,0.00,Wunderground v.1.15,2013-03-04 01:23:00,
2013-03-03 20:28:00,27.7,20.5,29.70,East,89,2.0,3.0,74,0.00,,,0.00,Wunderground v.1.15,2013-03-04 01:28:00,
2013-03-03 20:34:00,27.7,20.5,29.70,SSE,158,1.0,2.0,74,0.00,,,0.00,Wunderground v.1.15,2013-03-04 01:34:00,
2013-03-03 20:39:00,27.6,20.1,29.71,ENE,67,1.0,5.0,73,0.00,,,0.00,Wunderground v.1.15,2013-03-04 01:39:00,
2013-03-03 20:45:00,27.6,20.1,29.70,SW,214,2.0,5.0,73,0.00,,,0.00,Wunderground v.1.15,2013-03-04 01:45:00,
2013-03-03 20:51:00,27.4,19.9,29.70,ESE,103,2.0,2.0,73,0.00,,,0.00,Wunderground v.1.15,2013-03-04 01:51:00,
2013-03-03 20:57:00,27.3,19.8,29.70,ENE,76,2.0,6.0,73,0.00,,,0.00,Wunderground v.1.15,2013-03-04 01:57:00,
2013-03-03 21:03:00,27.1,19.6,29.70,East,90,1.0,4.0,73,0.00,,,0.00,Wunderground v.1.15,2013-03-04 02:03:00,
2013-03-03 21:09:00,26.9,19.4,29.70,ESE,120,1.0,4.0,73,0.00,,,0.00,Wunderground v.1.15,2013-03-04 02:09:00,
2013-03-03 21:15:00,26.8,19.3,29.70,SW,233,1.0,2.0,73,0.00,,,0.00,Wunderground v.1.15,2013-03-04 02:15:00,
2013-03-03 21:21:00,26.8,19.3,29.70,South,180,1.0,3.0,73,0.00,,,0.00,Wunderground v.1.15,2013-03-04 02:21:00,
2013-03-03 21:27:00,26.8,19.3,29.71,NE,34,2.0,4.0,73,0.00,,,0.00,Wunderground v.1.15,2013-03-04 02:27:00,
2013-03-03 21:33:00,26.8,19.0,29.71,NW,308,3.0,6.0,72,0.00,,,0.00,Wunderground v.1.15,2013-03-04 02:33:00,
2013-03-03 21:39:00,26.8,19.0,29.70,East,84,3.0,6.0,72,0.00,,,0.00,Wunderground v.1.15,2013-03-04 02:39:00,
2013-03-03 21:45:00,26.8,19.3,29.71,ESE,110,2.0,5.0,73,0.00,,,0.00,Wunderground v.1.15,2013-03-04 02:45:00,
2013-03-03 21:50:00,26.7,18.9,29.71,NNW,344,2.0,2.0,72,0.00,,,0.00,Wunderground v.1.15,2013-03-04 02:50:00,
2013-03-03 21:56:00,26.6,18.8,29.71,ESE,111,3.0,3.0,72,0.00,,,0.00,Wunderground v.1.15,2013-03-04 02:56:00,
2013-03-03 22:01:00,26.5,18.7,29.70,NE,51,3.0,5.0,72,0.00,,,0.00,Wunderground v.1.15,2013-03-04 03:01:00,
2013-03-03 22:07:00,26.4,18.6,29.70,NE,39,3.0,5.0,72,0.00,,,0.00,Wunderground v.1.15,2013-03-04 03:07:00,
2013-03-03 22:13:00,26.3,18.5,29.71,SSE,160,3.0,6.0,72,0.00,,,0.00,Wunderground v.1.15,2013-03-04 03:13:00,
2013-03-03 22:18:00,26.2,18.4,29.71,ENE,70,3.0,6.0,72,0.00,,,0.00,Wunderground v.1.15,2013-03-04 03:18:00,
2013-03-03 22:24:00,26.1,18.3,29.71,ENE,66,3.0,5.0,72,0.00,,,0.00,Wunderground v.1.15,2013-03-04 03:24:00,
2013-03-03 22:30:00,26.0,18.5,29.71,SSW,194,3.0,3.0,73,0.00,,,0.00,Wunderground v.1.15,2013-03-04 03:30:00,
2013-03-03 22:36:00,25.9,18.1,29.71,NE,36,3.0,4.0,72,0.00,,,0.00,Wunderground v.1.15,2013-03-04 03:36:00,
2013-03-03 22:42:00,25.9,18.1,29.71,WNW,283,2.0,4.0,72,0.00,,,0.00,Wunderground v.1.15,2013-03-04 03:42:00,
2013-03-03 22:48:00,25.9,17.8,29.71,SSE,167,3.0,4.0,71,0.00,,,0.00,Wunderground v.1.15,2013-03-04 03:48:00,
2013-03-03 22:54:00,25.9,18.1,29.71,SW,218,3.0,11.0,72,0.00,,,0.00,Wunderground v.1.15,2013-03-04 03:54:00,
2013-03-03 23:00:00,25.9,17.8,29.71,NE,37,2.0,2.0,71,0.00,,,0.00,Wunderground v.1.15,2013-03-04 04:00:00,
2013-03-03 23:05:00,25.9,18.1,29.71,SW,215,3.0,4.0,72,0.00,,,0.00,Wunderground v.1.15,2013-03-04 04:05:00,
2013-03-03 23:11:00,25.9,18.1,29.71,East,80,2.0,2.0,72,0.00,,,0.00,Wunderground v.1.15,2013-03-04 04:11:00,
2013-03-03 23:17:00,25.8,17.7,29.71,ENE,75,1.0,3.0,71,0.00,,,0.00,Wunderground v.1.15,2013-03-04 04:17:00,
2013-03-03 23:23:00,25.8,18.0,29.71,SW,219,2.0,5.0,72,0.00,,,0.00,Wunderground v.1.15,2013-03-04 04:23:00,
2013-03-03 23:29:00,25.8,18.0,29.71,SSW,198,2.0,6.0,72,0.00,,,0.00,Wunderground v.1.15,2013-03-04 04:29:00,
2013-03-03 23:35:00,25.7,17.9,29.71,South,178,2.0,3.0,72,0.00,,,0.00,Wunderground v.1.15,2013-03-04 04:35:00,
2013-03-03 23:41:00,25.6,17.8,29.71,North,10,2.0,2.0,72,0.00,,,0.00,Wunderground v.1.15,2013-03-04 04:41:00,
2013-03-03 23:46:00,25.5,17.7,29.71,East,99,2.0,4.0,72,0.00,,,0.00,Wunderground v.1.15,2013-03-04 04:46:00,
2013-03-03 23:52:00,25.5,17.7,29.71,SE,128,2.0,5.0,72,0.00,,,0.00,Wunderground v.1.15,2013-03-04 04:52:00,
2013-03-03 23:58:00,25.4,17.6,29.71,SSE,162,2.0,5.0,72,0.00,,,0.00,Wunderground v.1.15,2013-03-04 04:58:00,